Date,TemperatureHighF,TemperatureAvgF,TemperatureLowF,DewpointHighF,DewpointAvgF,DewpointLowF,HumidityHigh,HumidityAvg,HumidityLow,PressureMaxIn,PressureMinIn,WindSpeedMaxMPH,WindSpeedAvgMPH,GustSpeedMaxMPH,PrecipitationSumIn
2013-3-1,55.0,47.9,38.0,48.0,44.5,36.0,97,88,72,30.42,30.30,12,4,17,0.01
2013-3-2,51.0,42.9,36.0,46.0,40.2,34.0,98,91,75,30.30,30.03,19,5,27,0.01
2013-3-3,47.0,36.6,25.0,34.0,27.7,21.0,89,72,43,30.22,30.07,18,6,26,0.01
2013-3-4,47.0,33.9,21.0,25.0,20.9,17.0,87,62,34,30.24,29.99,14,4,22,0.00
2013-3-5,41.0,34.0,27.0,33.0,27.6,20.0,94,78,65,29.99,29.74,8,2,11,0.03
2013-3-6,35.0,33.8,32.0,34.0,32.5,31.0,97,95,93,29.91,29.56,10,3,14,0.29
2013-3-7,49.0,37.5,29.0,35.0,30.4,26.0,96,78,43,30.05,29.91,6,1,11,0.07
2013-3-8,52.0,36.8,24.0,38.0,30.2,22.0,94,78,55,30.16,30.00,6,1,11,0.03
2013-3-9,57.0,38.5,24.0,38.0,29.9,22.0,94,74,44,30.41,30.16,11,2,16,0.01
2013-3-10,54.0,40.7,29.0,41.0,33.8,24.0,91,77,53,30.41,30.31,16,6,24,0.01
2013-3-11,52.0,43.3,35.0,44.0,38.8,33.0,95,85,60,30.37,30.21,9,3,13,0.00
2013-3-12,58.0,48.4,42.0,48.0,43.0,38.0,97,83,61,30.21,30.12,19,6,29,0.00
2013-3-13,62.0,49.1,41.0,49.0,42.3,38.0,92,78,57,30.21,30.11,8,2,13,0.00
2013-3-14,61.0,48.9,40.0,48.0,40.6,35.0,94,76,44,30.16,30.03,19,5,31,0.00
2013-3-15,58.0,48.7,42.0,46.0,42.2,39.0,96,79,59,30.20,30.12,14,5,24,0.00
2013-3-16,49.0,42.2,33.0,42.0,37.7,30.0,94,84,69,30.12,29.85,21,9,30,0.03
2013-3-17,43.0,35.5,31.0,32.0,29.6,27.0,91,79,60,30.14,29.95,20,13,31,0.03
2013-3-18,48.0,37.5,31.0,34.0,30.7,24.0,89,77,56,30.17,30.09,19,9,27,0.00
2013-3-19,46.0,37.6,25.0,36.0,29.0,22.0,94,72,51,30.17,29.76,8,4,13,0.15
2013-3-20,49.0,38.8,32.0,43.0,35.3,28.0,97,88,62,29.95,29.54,26,8,39,0.42
2013-3-21,44.0,35.7,31.0,34.0,29.9,27.0,92,80,59,30.15,29.96,19,12,28,0.17
2013-3-22,33.0,28.9,26.0,28.0,25.5,23.0,91,87,82,30.31,30.13,13,4,19,0.00
2013-3-23,44.0,31.7,23.0,28.0,24.2,21.0,93,75,48,30.32,30.22,5,1,9,0.00
2013-3-24,45.0,34.6,23.0,30.0,23.9,19.0,87,67,44,30.26,30.14,9,2,15,0.00
2013-3-25,54.0,42.1,29.0,35.0,28.6,22.0,83,60,44,30.14,29.96,8,2,14,0.01
2013-3-26,53.0,44.2,35.0,40.0,34.7,31.0,91,71,48,29.99,29.93,4,0,9,0.01
2013-3-27,59.0,48.6,40.0,45.0,40.4,36.0,91,75,50,29.98,29.91,8,1,12,0.00
2013-3-28,59.0,49.2,40.0,49.0,43.4,39.0,98,82,51,30.11,29.98,6,1,9,0.06
2013-3-29,63.0,50.9,41.0,47.0,42.3,37.0,90,74,47,30.21,30.11,7,1,12,0.01
2013-3-30,67.0,51.2,35.0,48.0,39.1,-99.9,93,69,42,30.24,30.09,8,3,14,0.00
2013-3-31,68.0,52.4,35.0,46.0,39.0,31.0,88,63,39,30.09,29.92,8,1,14,0.00